TimeCDT,TemperatureF,Dew PointF,Humidity,Sea Level PressureIn,VisibilityMPH,Wind Direction,Wind SpeedMPH,Gust SpeedMPH,PrecipitationIn,Events,Conditions,WindDirDegrees,DateUTC
12:53 AM,66.9,64.9,93,29.83,10.0,South,3.5,-,N/A,,Overcast,170,2013-08-06 05:53:00
1:53 AM,66.9,64.9,93,29.82,8.0,South,3.5,-,N/A,,Overcast,180,2013-08-06 06:53:00
2:53 AM,68.0,64.9,90,29.81,8.0,South,5.8,-,N/A,,Overcast,190,2013-08-06 07:53:00
3:53 AM,66.9,64.9,93,29.81,7.0,SSE,5.8,-,N/A,,Overcast,160,2013-08-06 08:53:00
4:53 AM,66.9,64.9,93,29.80,6.0,SSW,5.8,-,N/A,,Overcast,200,2013-08-06 09:53:00
5:02 AM,66.2,64.4,94,29.81,5.0,SSW,4.6,-,N/A,,Overcast,200,2013-08-06 10:02:00
5:38 AM,66.2,64.4,94,29.80,2.0,South,4.6,-,N/A,,Overcast,170,2013-08-06 10:38:00
5:53 AM,66.0,64.9,96,29.80,2.5,Calm,Calm,-,N/A,,Overcast,0,2013-08-06 10:53:00
6:30 AM,66.2,64.4,94,29.82,4.0,Calm,Calm,-,N/A,,Overcast,0,2013-08-06 11:30:00
6:42 AM,66.2,64.4,94,29.82,4.0,Calm,Calm,-,N/A,,Overcast,0,2013-08-06 11:42:00
6:53 AM,66.9,64.9,93,29.81,4.0,Calm,Calm,-,N/A,,Overcast,0,2013-08-06 11:53:00
7:30 AM,68.0,64.4,88,29.84,10.0,SSW,4.6,-,N/A,,Scattered Clouds,200,2013-08-06 12:30:00
7:53 AM,68.0,64.0,87,29.83,10.0,SW,3.5,-,N/A,,Partly Cloudy,220,2013-08-06 12:53:00
8:53 AM,71.1,62.1,73,29.84,10.0,West,3.5,-,N/A,,Partly Cloudy,260,2013-08-06 13:53:00
9:53 AM,73.0,63.0,71,29.83,10.0,SSW,3.5,-,N/A,,Clear,200,2013-08-06 14:53:00
10:53 AM,75.0,64.0,69,29.83,10.0,South,6.9,-,N/A,,Clear,170,2013-08-06 15:53:00
11:53 AM,79.0,61.0,54,29.80,10.0,South,5.8,-,N/A,,Clear,190,2013-08-06 16:53:00
12:53 PM,79.0,64.0,60,29.77,10.0,South,4.6,-,N/A,,Clear,180,2013-08-06 17:53:00
1:53 PM,82.0,63.0,52,29.76,10.0,Variable,6.9,19.6,N/A,,Clear,0,2013-08-06 18:53:00
2:53 PM,82.9,66.0,56,29.76,10.0,South,6.9,-,N/A,,Partly Cloudy,180,2013-08-06 19:53:00
3:53 PM,84.9,66.9,55,29.75,10.0,SSW,9.2,-,N/A,,Clear,200,2013-08-06 20:53:00
4:53 PM,84.9,66.0,53,29.74,10.0,SSE,9.2,-,N/A,,Partly Cloudy,160,2013-08-06 21:53:00
5:53 PM,86.0,64.0,48,29.73,10.0,SSW,11.5,-,N/A,,Scattered Clouds,200,2013-08-06 22:53:00
6:53 PM,84.0,66.0,55,29.73,10.0,SSW,9.2,-,N/A,,Clear,210,2013-08-06 23:53:00
7:53 PM,82.0,66.0,58,29.71,10.0,South,8.1,-,N/A,,Clear,180,2013-08-07 00:53:00
8:53 PM,80.1,66.0,62,29.71,10.0,South,8.1,-,N/A,,Clear,180,2013-08-07 01:53:00
9:53 PM,77.0,66.9,71,29.72,10.0,South,8.1,-,N/A,,Clear,180,2013-08-07 02:53:00
10:53 PM,77.0,68.0,74,29.72,10.0,South,10.4,-,N/A,,Clear,170,2013-08-07 03:53:00
11:19 PM,75.2,66.2,73,29.78,10.0,NNW,28.8,36.8,N/A,Thunderstorm,Squalls,340,2013-08-07 04:19:00
11:37 PM,69.8,60.8,73,29.78,10.0,NNW,13.8,25.3,N/A,Thunderstorm,Thunderstorm,340,2013-08-07 04:37:00
11:53 PM,68.0,61.0,78,29.75,10.0,North,4.6,-,N/A,Thunderstorm,Thunderstorm,10,2013-08-07 04:53:00